Location: Carrières
(48.9495°N, 2.0407°E)
Time: 19:10:16
(UTC+00:00)

Cosmos 2369 - Pass Details

Date: 28 January 2023
Orbit: 838 x 857 km, 71.0° (Epoch: 25 March)

Event Time Altitude Azimuth Distance (km) Brightness Sun altitude
Rises 18:20:41 0° 211° (SSW) 3,379 7.5 -16.1°
Reaches altitude 10° 18:23:07 10° 213° (SSW) 2,450 6.7 -16.5°
Maximum altitude 18:28:45 76° 300° (WNW) 871 3.8 -17.4°
Enters shadow 18:34:21 11° 26° (NNE) 2,441 5.8 -18.3°
